Regional Weather Roundup
Issued by NWS

Home | Current Version | Previous Version | Graphics & Text | Print | Product List | Glossary On
Versions: 1 2 3 4 5 6 7 8 9 10 11 12 13 14 15 16 17 18 19 20 21 22 23 24 25 26 27 28 29 30 31 32 33 34 35 36 37 38 39 40 41 42 43 44 45 46 47 48 49 50
000
ASUS43 KIND 272359
RWRIN

WEATHER ROUNDUP FOR INDIANA
NATIONAL WEATHER SERVICE INDIANAPOLIS IN
700 PM EST FRI FEB 27 2015

NOTE: "FAIR" INDICATES FEW OR NO CLOUDS BELOW 12,000 FEET WITH NO
SIGNIFICANT WEATHER AND/OR OBSTRUCTIONS TO VISIBILITY.

* - STATION DOES NOT REPORT WEATHER SUCH AS PRECIPITATION OR FOG.

+ - STATION NOT QUALITY CONTROLLED BY THE NATIONAL WEATHER SERVICE.
    USE DATA WITH CAUTION...ESPECIALLY DEWPOINT AND RELATIVE
    HUMIDITY OBSERVATIONS.

INZ001>003-010>013-019-020-280100-
NORTHWEST INDIANA

CITY           SKY/WX    TMP DP  RH WIND       PRES   REMARKS
GARY /AIRPORT/ CLEAR     14  -6  41 SW10      30.63R WCI   1
KNOX *+          N/A      9 -18  28 SW7       30.62R WCI  -3
MONTICELLO +   CLEAR      9  -1  63 SW3       30.63R
6HR MIN TEMP:   9; 6HR MAX TEMP:  15;

VALPARAISO     NOT AVBL

$$

LMZ046-743>745-280100-
SOUTHERN LAKE MICHIGAN

STATION/POSITION TIME  TEMP WIND        PRES
                       AIR  DIR/SP/G
                 (UTC) (F)  (DEG/KT/KT) (MB)
MICHIGAN CITY    2300   14  210/  5/  5   N/A

$$

INZ004-005-014>016-021>024-280100-
NORTH CENTRAL INDIANA

CITY           SKY/WX    TMP DP  RH WIND       PRES   REMARKS
ELKHART        CLEAR     14  -4  44 SW5       30.59S WCI   6
GOSHEN         CLEAR     13  -1  54 SW5       30.59S WCI   5
6HR MIN TEMP:  13; 6HR MAX TEMP:  17;

SOUTH BEND     CLEAR     13  -1  54 SW9       30.60R WCI   1
6HR MIN TEMP:  13; 6HR MAX TEMP:  19;


$$

INZ006>009-017-018-025>027-280100-
NORTHEAST INDIANA

CITY           SKY/WX    TMP DP  RH WIND       PRES   REMARKS
ANGOLA *+      CLEAR     12   0  57 SW3       30.56S
FORT WAYNE     PTCLDY    12   2  64 W5        30.60S WCI   4
6HR MIN TEMP:  12; 6HR MAX TEMP:  20;


$$

INZ028-029-035-036-043>045-051>053-280100-
WEST CENTRAL INDIANA

CITY           SKY/WX    TMP DP  RH WIND       PRES   REMARKS
GREENCASTLE +  CLEAR     12  -6  44 NE3       30.62R
LAFAYETTE      CLEAR     11  -2  56 N5        30.64R WCI   3
6HR MIN TEMP:  11; 6HR MAX TEMP:  16;

TERRE HAUTE    CLEAR     13  -2  51 NW6       30.65R WCI   4
6HR MIN TEMP:  13; 6HR MAX TEMP:  18;


$$

INZ030>032-037>040-046>048-054>057-064-065-280100-
CENTRAL INDIANA

CITY           SKY/WX    TMP DP  RH WIND       PRES   REMARKS
CP ATTERBURY + CLEAR     18   1  49 CALM      30.63R
FRANKFORT +    CLEAR     11  -1  58 NW5       30.63R WCI   3
6HR MIN TEMP:  11; 6HR MAX TEMP:  19;

GREENWOOD *+   CLEAR     14  -6  41 NW3       30.62R
INDIANAPOLIS   PTCLDY    12  -3  51 NW5       30.61R WCI   4
6HR MIN TEMP:  12; 6HR MAX TEMP:  18;

-EAGLE CREEK   CLEAR     13  -2  51 NW5       30.61R WCI   5
6HR MIN TEMP:  11; 6HR MAX TEMP:  16;

KOKOMO *+      CLEAR     10   0  61 W6        30.61S WCI   1
6HR MIN TEMP:  10; 6HR MAX TEMP:  18;

MT COMFORT *+  CLEAR     10  -9  40 N3        30.62R
SHELBYVILLE    CLEAR     15   0  51 CALM      30.61R
6HR MIN TEMP:  14; 6HR MAX TEMP:  21;


$$

INZ033-034-041-042-049-050-058-059-280100-
EAST CENTRAL INDIANA

CITY           SKY/WX    TMP DP  RH WIND       PRES   REMARKS
MUNCIE         CLEAR     12   1  61 W3        30.60S
6HR MIN TEMP:  10; 6HR MAX TEMP:  16;


$$

INZ060-061-067>069-081>083-085>088-280100-
SOUTHWEST INDIANA

CITY           SKY/WX    TMP DP  RH WIND       PRES   REMARKS
EVANSVILLE     CLOUDY    21   6  52 N8        30.64S WCI  11
6HR MIN TEMP:  20; 6HR MAX TEMP:  25;

HUNTINGBURG *+ CLEAR     19   7  58 N8        30.63S WCI   9
6HR MIN TEMP:  19; 6HR MAX TEMP:  23;


$$

INZ062-063-066-070>080-084-089>092-280100-
SOUTH CENTRAL AND SOUTHEAST INDIANA

CITY           SKY/WX    TMP DP  RH WIND       PRES   REMARKS
BLOOMINGTON    CLEAR     16   0  49 N6        30.60R WCI   7
6HR MIN TEMP:  16; 6HR MAX TEMP:  22; 6HR PCP: TRACE;

SEYMOUR +      CLEAR     18   3  53 NE9       30.63R WCI   6

$$




USA.gov is the U.S. government's official web portal to all federal, state and local government web resources and services.